CDT,Max TemperatureF,Mean TemperatureF,Min TemperatureF,Max Dew PointF,MeanDew PointF,Min DewpointF,Max Humidity, Mean Humidity, Min Humidity, Max Sea Level PressureIn, Mean Sea Level PressureIn, Min Sea Level PressureIn, Max VisibilityMiles, Mean VisibilityMiles, Min VisibilityMiles, Max Wind SpeedMPH, Mean Wind SpeedMPH, Max Gust SpeedMPH,PrecipitationIn, CloudCover, Events, WindDirDegrees
2012-10-1,66,53,39,45,38,32,93,62,30,30.25,30.13,29.89,,,,22,10,28,0.00,,,292
2012-10-2,73,63,52,42,37,34,54,43,31,29.84,29.73,29.65,,,,21,16,36,0.00,,,283
2012-10-3,48,43,37,39,37,35,100,83,66,30.31,30.07,29.87,,,,22,10,25,1.22,,,16
2012-10-4,41,37,33,34,30,24,92,76,59,30.39,30.36,30.31,,,,21,18,30,0.00,,,326
2012-10-5,39,31,22,26,21,19,96,72,48,30.47,30.43,30.39,,,,22,12,30,0.00,,,338
2012-10-6,46,34,21,27,21,15,88,60,31,30.48,30.36,30.15,,,,20,9,22,0.00,,,285
2012-10-7,56,43,30,40,31,26,85,60,35,30.12,29.92,29.71,,,,21,10,32,0.00,,,272
2012-10-8,56,51,45,41,35,25,83,61,38,29.81,29.69,29.55,,,,33,18,41,0.00,,,297
2012-10-9,42,38,34,34,30,24,96,78,59,30.09,30.00,29.80,,,,31,17,38,0.01,,,313
2012-10-10,48,39,30,35,30,25,85,71,57,30.09,29.98,29.84,,,,15,7,21,0.00,,,356
2012-10-11,42,37,32,34,27,21,89,70,50,30.38,30.31,30.10,,,,12,7,20,0.00,,,354
2012-10-12,59,47,34,36,31,26,82,59,36,30.32,29.97,29.68,,,,31,18,38,0.00,,,175
2012-10-13,65,48,30,40,35,27,92,65,37,29.96,29.77,29.64,,,,23,10,29,0.00,,,317
2012-10-14,65,48,31,40,36,30,96,67,37,30.02,29.96,29.88,,,,14,5,22,0.00,,,308
2012-10-15,77,62,47,48,42,39,86,57,27,29.86,29.67,29.57,,,,26,11,38,0.00,,,236
2012-10-16,66,52,37,52,47,39,100,74,48,29.60,29.42,29.25,,,,16,7,22,0.00,,,244
2012-10-17,52,46,40,44,38,34,89,77,65,29.51,29.37,29.22,,,,43,27,56,0.13,,,301
2012-10-18,45,42,39,39,36,33,92,84,76,30.00,29.77,29.50,,,,46,35,59,0.06,,,329
2012-10-19,45,41,37,35,33,31,79,72,65,29.98,29.86,29.67,,,,23,9,31,0.00,,,43
2012-10-20,65,51,36,46,38,33,92,69,46,29.65,29.58,29.52,,,,12,6,14,0.00,,,182
2012-10-21,54,48,41,48,36,29,89,66,42,30.10,29.92,29.66,,,,15,9,20,0.00,,,350
2012-10-22,46,42,38,37,32,29,82,68,53,30.13,30.04,29.82,,,,18,9,22,0.01,,,90
2012-10-23,48,44,40,47,42,34,100,97,93,29.89,29.75,29.66,,,,22,10,28,0.26,,,260
2012-10-24,36,33,29,32,27,24,100,85,69,30.13,30.04,29.90,,,,25,13,31,0.00,,,290
2012-10-25,34,32,29,24,23,21,78,70,61,30.32,30.19,30.11,,,,31,23,38,0.00,,,307
2012-10-26,32,30,27,26,22,19,85,74,63,30.40,30.35,30.32,,,,24,14,31,0.03,,,301
2012-10-27,30,27,23,23,22,19,96,84,72,30.33,30.31,30.28,,,,10,4,12,0.06,,,74
2012-10-28,31,28,24,30,25,21,92,87,81,30.32,30.21,30.12,,,,20,11,24,0.04,,,107
2012-10-29,46,39,32,40,35,31,100,92,83,30.11,30.07,30.04,,,,14,9,18,0.00,,,108
2012-10-30,58,48,37,47,41,35,100,83,66,30.04,30.00,29.97,,,,10,6,,0.02,,,152
2012-10-31,47,39,30,42,35,28,100,90,79,30.20,30.06,29.96,,,,23,7,30,0.00,,,5